Time,TemperatureF,DewpointF,PressureIn,WindDirection,WindDirectionDegrees,WindSpeedMPH,WindSpeedGustMPH,Humidity,HourlyPrecipIn,Conditions,Clouds,dailyrainin,SoftwareType,DateUTC
2013-06-17 13:22:00,83.7,51.6,29.82,NNW,342,3.0,8.0,53,0.00,,,0.00,meteohub,2013-06-17 17:22:00,
2013-06-17 13:23:00,83.5,51.6,29.83,NNW,342,1.0,8.0,53,0.00,,,0.00,meteohub,2013-06-17 17:23:00,
2013-06-17 13:28:00,83.1,51.6,29.82,WNW,300,0.0,7.0,52,0.00,,,0.00,meteohub,2013-06-17 17:28:00,
2013-06-17 13:33:00,82.9,51.6,29.81,NNW,346,2.0,7.0,54,0.00,,,0.00,meteohub,2013-06-17 17:33:00,
2013-06-17 13:38:00,83.5,51.6,29.81,East,95,0.0,7.0,59,0.00,,,0.00,meteohub,2013-06-17 17:38:00,
2013-06-17 13:43:00,83.7,51.8,29.81,NE,45,1.0,7.0,55,0.00,,,0.00,meteohub,2013-06-17 17:43:00,
2013-06-17 13:48:00,83.7,51.8,29.80,SE,125,0.0,5.0,52,0.00,,,0.00,meteohub,2013-06-17 17:48:00,
2013-06-17 13:53:00,83.8,51.8,29.81,East,96,1.0,6.0,52,0.00,,,0.00,meteohub,2013-06-17 17:53:00,
2013-06-17 13:58:00,83.5,51.8,29.81,NNE,33,0.0,6.0,51,0.00,,,0.00,meteohub,2013-06-17 17:58:00,
2013-06-17 14:03:00,83.7,51.8,29.80,SE,126,1.0,6.0,52,0.00,,,0.00,meteohub,2013-06-17 18:03:00,
2013-06-17 14:08:00,84.0,52.0,29.80,SSE,148,1.0,6.0,54,0.00,,,0.00,meteohub,2013-06-17 18:08:00,
2013-06-17 14:13:00,84.0,52.0,29.80,NW,314,0.0,8.0,52,0.00,,,0.00,meteohub,2013-06-17 18:13:00,
2013-06-17 14:18:00,84.4,52.2,29.79,East,88,1.0,8.0,54,0.00,,,0.00,meteohub,2013-06-17 18:18:00,
2013-06-17 14:23:00,84.7,52.2,29.79,NNE,31,0.0,8.0,49,0.00,,,0.00,meteohub,2013-06-17 18:23:00,
2013-06-17 14:28:00,84.9,52.2,29.79,NNW,342,0.0,8.0,47,0.00,,,0.00,meteohub,2013-06-17 18:28:00,
2013-06-17 14:33:00,84.7,52.2,29.79,SSE,157,2.0,12.0,50,0.00,,,0.00,meteohub,2013-06-17 18:33:00,
2013-06-17 14:38:00,84.7,52.2,29.79,ESE,105,0.0,12.0,51,0.00,,,0.00,meteohub,2013-06-17 18:38:00,
2013-06-17 14:43:00,84.7,52.2,29.80,NNE,27,2.0,6.0,51,0.00,,,0.00,meteohub,2013-06-17 18:43:00,
2013-06-17 14:48:00,84.9,52.3,29.79,NNE,28,1.0,7.0,52,0.00,,,0.00,meteohub,2013-06-17 18:48:00,
2013-06-17 14:53:00,84.9,52.3,29.79,NNW,328,2.0,9.0,49,0.00,,,0.00,meteohub,2013-06-17 18:53:00,
2013-06-17 14:58:00,84.7,52.3,29.80,NW,315,9.0,9.0,47,0.00,,,0.00,meteohub,2013-06-17 18:58:00,
2013-06-17 15:03:00,83.7,52.3,29.80,NW,309,0.0,9.0,49,0.00,,,0.00,meteohub,2013-06-17 19:03:00,
2013-06-17 15:08:00,83.3,51.6,29.79,NW,315,3.0,9.0,52,0.00,,,0.00,meteohub,2013-06-17 19:08:00,
2013-06-17 15:13:00,82.6,51.6,29.79,NNW,331,0.0,9.0,50,0.00,,,0.00,meteohub,2013-06-17 19:13:00,
2013-06-17 15:18:00,82.0,51.6,29.79,NW,324,0.0,5.0,52,0.00,,,0.00,meteohub,2013-06-17 19:18:00,
2013-06-17 15:23:00,81.9,51.6,29.79,NW,318,1.0,5.0,54,0.00,,,0.00,meteohub,2013-06-17 19:23:00,
2013-06-17 15:28:00,81.7,51.6,29.79,NNW,330,0.0,4.0,53,0.00,,,0.00,meteohub,2013-06-17 19:28:00,
2013-06-17 15:33:00,81.7,51.6,29.78,NW,321,1.0,4.0,56,0.00,,,0.00,meteohub,2013-06-17 19:33:00,
2013-06-17 15:39:00,82.0,51.6,29.79,NW,323,0.0,6.0,55,0.00,,,0.00,meteohub,2013-06-17 19:39:00,
2013-06-17 15:44:00,82.2,51.8,29.78,West,269,0.0,6.0,56,0.00,,,0.00,meteohub,2013-06-17 19:44:00,
2013-06-17 15:49:00,82.2,51.8,29.79,WNW,283,0.0,6.0,56,0.00,,,0.00,meteohub,2013-06-17 19:49:00,
2013-06-17 15:54:00,82.6,51.8,29.78,WNW,294,1.0,4.0,54,0.00,,,0.00,meteohub,2013-06-17 19:54:00,
2013-06-17 15:59:00,82.2,51.8,29.78,WNW,294,0.0,4.0,55,0.00,,,0.00,meteohub,2013-06-17 19:59:00,
2013-06-17 16:04:00,81.9,51.8,29.78,WNW,294,0.0,4.0,56,0.00,,,0.00,meteohub,2013-06-17 20:04:00,
2013-06-17 16:09:00,81.5,51.8,29.79,WNW,294,0.0,4.0,60,0.00,,,0.00,meteohub,2013-06-17 20:09:00,
2013-06-17 16:14:00,80.4,51.6,29.79,ESE,118,0.0,1.0,55,0.00,,,0.00,meteohub,2013-06-17 20:14:00,
2013-06-17 16:19:00,79.0,51.6,29.78,ESE,119,2.0,6.0,55,0.00,,,0.00,meteohub,2013-06-17 20:19:00,
2013-06-17 16:24:00,77.5,51.6,29.79,WNW,294,0.0,6.0,55,0.00,,,0.00,meteohub,2013-06-17 20:24:00,
2013-06-17 16:29:00,76.6,51.6,29.80,WNW,294,0.0,6.0,57,0.00,,,0.00,meteohub,2013-06-17 20:29:00,
2013-06-17 16:34:00,76.1,51.6,29.80,WNW,294,0.0,3.0,60,0.00,,,0.00,meteohub,2013-06-17 20:34:00,
2013-06-17 16:39:00,76.1,51.6,29.80,WNW,294,1.0,3.0,59,0.00,,,0.00,meteohub,2013-06-17 20:39:00,
2013-06-17 16:44:00,75.7,51.6,29.79,WNW,294,0.0,2.0,61,0.00,,,0.00,meteohub,2013-06-17 20:44:00,
2013-06-17 16:49:00,75.4,51.6,29.79,WNW,294,0.0,1.0,64,0.00,,,0.00,meteohub,2013-06-17 20:49:00,
2013-06-17 16:54:00,74.5,51.6,29.78,SSE,152,0.0,1.0,67,0.00,,,0.00,meteohub,2013-06-17 20:54:00,
2013-06-17 16:59:00,73.9,51.6,29.79,SE,124,0.0,2.0,69,0.00,,,0.00,meteohub,2013-06-17 20:59:00,
2013-06-17 17:04:00,73.4,51.6,29.81,NE,41,1.0,4.0,70,0.00,,,0.00,meteohub,2013-06-17 21:04:00,
2013-06-17 17:09:00,72.9,51.6,29.86,SE,136,3.0,4.0,74,0.00,,,0.00,meteohub,2013-06-17 21:09:00,
2013-06-17 17:14:00,69.3,51.6,29.86,SE,132,0.0,7.0,78,0.00,,,0.00,meteohub,2013-06-17 21:14:00,
2013-06-17 17:19:00,66.6,50.9,29.86,NNW,333,3.0,8.0,86,0.01,,,0.00,meteohub,2013-06-17 21:19:00,
2013-06-17 17:24:00,64.6,50.7,29.86,SE,138,0.0,8.0,88,0.01,,,0.01,meteohub,2013-06-17 21:24:00,
2013-06-17 17:29:00,64.0,50.5,29.87,SSE,151,0.0,9.0,90,0.03,,,0.03,meteohub,2013-06-17 21:29:00,
2013-06-17 17:34:00,63.7,50.5,29.87,SSE,151,0.0,9.0,91,0.03,,,0.03,meteohub,2013-06-17 21:34:00,
2013-06-17 17:39:00,63.3,50.5,29.86,SSE,151,0.0,6.0,92,0.05,,,0.05,meteohub,2013-06-17 21:39:00,
2013-06-17 17:44:00,63.1,50.4,29.86,SSE,151,0.0,5.0,93,0.07,,,0.07,meteohub,2013-06-17 21:44:00,
2013-06-17 17:49:00,63.1,50.4,29.85,SSE,150,0.0,2.0,93,0.07,,,0.07,meteohub,2013-06-17 21:49:00,
2013-06-17 17:54:00,63.1,50.4,29.85,SSE,150,0.0,0.0,94,0.09,,,0.09,meteohub,2013-06-17 21:54:00,
2013-06-17 17:59:00,63.1,50.4,29.85,SSE,151,0.0,0.0,94,0.10,,,0.10,meteohub,2013-06-17 21:59:00,
2013-06-17 18:04:00,63.1,50.4,29.84,SSE,151,0.0,1.0,94,0.11,,,0.11,meteohub,2013-06-17 22:04:00,
2013-06-17 18:09:00,63.1,50.4,29.84,SSE,151,0.0,1.0,94,0.13,,,0.13,meteohub,2013-06-17 22:09:00,
2013-06-17 18:14:00,63.5,51.1,29.84,NW,310,1.0,1.0,95,0.13,,,0.13,meteohub,2013-06-17 22:14:00,
2013-06-17 18:19:00,63.7,51.8,29.84,SSW,213,0.0,2.0,95,0.14,,,0.15,meteohub,2013-06-17 22:19:00,
2013-06-17 18:24:00,63.7,51.3,29.84,SW,215,0.0,5.0,95,0.15,,,0.16,meteohub,2013-06-17 22:24:00,
2013-06-17 18:29:00,63.7,51.3,29.84,SW,214,0.0,5.0,95,0.14,,,0.17,meteohub,2013-06-17 22:29:00,
2013-06-17 18:34:00,63.7,51.3,29.84,SW,214,0.0,2.0,95,0.14,,,0.18,meteohub,2013-06-17 22:34:00,
2013-06-17 18:39:00,63.9,51.3,29.85,SW,215,0.0,1.0,96,0.13,,,0.19,meteohub,2013-06-17 22:39:00,
2013-06-17 18:44:00,64.0,51.4,29.85,SW,215,0.0,1.0,96,0.13,,,0.20,meteohub,2013-06-17 22:44:00,
2013-06-17 18:49:00,64.0,51.4,29.85,SW,215,0.0,1.0,96,0.13,,,0.21,meteohub,2013-06-17 22:49:00,
2013-06-17 18:54:00,64.0,51.4,29.86,SW,215,0.0,0.0,96,0.13,,,0.22,meteohub,2013-06-17 22:54:00,
2013-06-17 18:59:00,63.9,51.4,29.86,SW,214,0.0,1.0,96,0.12,,,0.23,meteohub,2013-06-17 22:59:00,
2013-06-17 19:04:00,63.9,51.4,29.86,SW,215,0.0,1.0,96,0.12,,,0.24,meteohub,2013-06-17 23:04:00,
2013-06-17 19:09:00,63.7,51.4,29.86,NW,325,0.0,0.0,96,0.11,,,0.24,meteohub,2013-06-17 23:09:00,
2013-06-17 19:14:00,63.3,51.4,29.86,NW,325,0.0,4.0,96,0.11,,,0.25,meteohub,2013-06-17 23:14:00,
2013-06-17 19:19:00,63.3,51.4,29.86,NNW,335,0.0,4.0,96,0.11,,,0.26,meteohub,2013-06-17 23:19:00,
2013-06-17 19:24:00,63.5,52.2,29.86,NNW,335,0.0,2.0,96,0.11,,,0.27,meteohub,2013-06-17 23:24:00,
2013-06-17 19:29:00,63.7,51.4,29.86,NNW,336,0.0,3.0,96,0.10,,,0.28,meteohub,2013-06-17 23:29:00,
2013-06-17 19:34:00,63.9,51.4,29.86,NNW,336,0.0,3.0,96,0.09,,,0.28,meteohub,2013-06-17 23:34:00,
2013-06-17 19:39:00,63.9,51.4,29.86,NNW,336,0.0,1.0,96,0.09,,,0.29,meteohub,2013-06-17 23:39:00,
2013-06-17 19:44:00,63.9,51.4,29.86,NNW,336,0.0,1.0,96,0.08,,,0.29,meteohub,2013-06-17 23:44:00,
2013-06-17 19:49:00,63.9,52.3,29.87,NNW,336,0.0,1.0,96,0.09,,,0.30,meteohub,2013-06-17 23:49:00,
2013-06-17 19:54:00,63.9,51.6,29.87,NNW,336,0.0,0.0,96,0.09,,,0.31,meteohub,2013-06-17 23:54:00,
2013-06-17 19:59:00,63.9,51.4,29.87,NNW,336,0.0,1.0,96,0.09,,,0.32,meteohub,2013-06-17 23:59:00,
2013-06-17 20:04:00,63.9,51.4,29.87,NNW,336,0.0,2.0,96,0.08,,,0.32,meteohub,2013-06-18 00:04:00,
2013-06-17 20:09:00,63.7,51.4,29.87,NNW,336,0.0,2.0,96,0.07,,,0.32,meteohub,2013-06-18 00:09:00,
2013-06-17 20:14:00,63.7,51.4,29.87,NNW,336,0.0,2.0,96,0.08,,,0.02,meteohub,2013-06-18 00:14:00,
2013-06-17 20:19:00,63.3,51.4,29.87,NNW,336,0.0,0.0,96,0.08,,,0.02,meteohub,2013-06-18 00:19:00,
2013-06-17 20:24:00,63.3,51.4,29.87,NNW,336,0.0,0.0,96,0.07,,,0.02,meteohub,2013-06-18 00:24:00,
2013-06-17 20:29:00,63.1,51.6,29.88,NNW,336,0.0,0.0,96,0.07,,,0.03,meteohub,2013-06-18 00:29:00,
2013-06-17 20:34:00,63.0,51.6,29.87,NNW,336,0.0,0.0,96,0.07,,,0.03,meteohub,2013-06-18 00:34:00,
2013-06-17 20:39:00,62.8,51.6,29.88,NNW,336,0.0,0.0,96,0.07,,,0.04,meteohub,2013-06-18 00:39:00,
2013-06-17 20:44:00,62.6,51.4,29.87,NNW,336,0.0,0.0,96,0.06,,,0.04,meteohub,2013-06-18 00:44:00,
2013-06-17 20:49:00,62.6,51.4,29.88,NNW,336,0.0,0.0,96,0.05,,,0.04,meteohub,2013-06-18 00:49:00,
2013-06-17 20:54:00,62.4,51.4,29.88,NNW,336,0.0,2.0,96,0.06,,,0.05,meteohub,2013-06-18 00:54:00,
2013-06-17 20:59:00,62.4,51.4,29.88,NNW,336,0.0,2.0,96,0.05,,,0.05,meteohub,2013-06-18 00:59:00,
2013-06-17 21:05:00,62.2,51.4,29.89,NNW,336,0.0,2.0,96,0.06,,,0.06,meteohub,2013-06-18 01:05:00,
2013-06-17 21:10:00,62.2,51.4,29.89,NNW,336,0.0,0.0,96,0.05,,,0.06,meteohub,2013-06-18 01:10:00,
2013-06-17 21:15:00,62.2,51.3,29.89,NNW,336,0.0,0.0,96,0.04,,,0.06,meteohub,2013-06-18 01:15:00,
2013-06-17 21:20:00,62.1,51.3,29.90,NNW,336,0.0,0.0,96,0.05,,,0.07,meteohub,2013-06-18 01:20:00,
2013-06-17 21:25:00,62.1,51.3,29.90,NNW,336,0.0,0.0,96,0.05,,,0.07,meteohub,2013-06-18 01:25:00,
2013-06-17 21:30:00,62.1,51.1,29.90,NNW,336,0.0,0.0,96,0.05,,,0.08,meteohub,2013-06-18 01:30:00,
2013-06-17 21:35:00,62.2,51.1,29.90,NNW,336,0.0,0.0,97,0.05,,,0.08,meteohub,2013-06-18 01:35:00,
2013-06-17 21:40:00,62.2,51.1,29.90,NNW,336,0.0,0.0,97,0.04,,,0.08,meteohub,2013-06-18 01:40:00,
2013-06-17 21:45:00,62.4,50.9,29.90,NNW,336,0.0,0.0,97,0.04,,,0.08,meteohub,2013-06-18 01:45:00,
2013-06-17 21:50:00,62.4,50.9,29.90,NNW,336,0.0,0.0,97,0.03,,,0.08,meteohub,2013-06-18 01:50:00,
2013-06-17 21:55:00,62.4,50.9,29.90,NNW,336,0.0,0.0,97,0.03,,,0.09,meteohub,2013-06-18 01:55:00,
2013-06-17 22:00:00,62.2,50.9,29.89,NNW,336,0.0,1.0,96,0.03,,,0.09,meteohub,2013-06-18 02:00:00,
2013-06-17 22:05:00,62.2,50.7,29.89,NNW,336,0.0,1.0,97,0.03,,,0.10,meteohub,2013-06-18 02:05:00,
2013-06-17 22:10:00,62.1,50.7,29.89,NNW,336,0.0,1.0,96,0.04,,,0.10,meteohub,2013-06-18 02:10:00,
2013-06-17 22:15:00,61.9,50.7,29.89,NNW,336,0.0,0.0,97,0.04,,,0.10,meteohub,2013-06-18 02:15:00,
2013-06-17 22:20:00,61.5,50.7,29.89,NNW,336,0.0,0.0,96,0.03,,,0.10,meteohub,2013-06-18 02:20:00,
2013-06-17 22:25:00,61.3,50.7,29.89,NNW,336,0.0,0.0,96,0.03,,,0.10,meteohub,2013-06-18 02:25:00,
2013-06-17 22:30:00,61.3,50.7,29.89,NNW,336,0.0,0.0,96,0.02,,,0.10,meteohub,2013-06-18 02:30:00,
2013-06-17 22:35:00,61.2,50.7,29.89,NNW,336,0.0,0.0,97,0.02,,,0.10,meteohub,2013-06-18 02:35:00,
2013-06-17 22:40:00,61.0,50.7,29.89,NNW,336,0.0,0.0,96,0.02,,,0.10,meteohub,2013-06-18 02:40:00,
2013-06-17 22:45:00,60.8,51.4,29.89,NNW,336,0.0,0.0,97,0.02,,,0.10,meteohub,2013-06-18 02:45:00,
2013-06-17 22:50:00,60.6,51.4,29.88,NNW,336,0.0,0.0,97,0.02,,,0.10,meteohub,2013-06-18 02:50:00,
2013-06-17 22:55:00,60.6,51.4,29.89,NNW,336,0.0,0.0,97,0.02,,,0.10,meteohub,2013-06-18 02:55:00,
2013-06-17 23:00:00,60.6,51.4,29.89,NNW,336,0.0,0.0,97,0.01,,,0.10,meteohub,2013-06-18 03:00:00,
2013-06-17 23:05:00,60.4,51.4,29.89,NNW,336,0.0,0.0,97,0.00,,,0.10,meteohub,2013-06-18 03:05:00,
2013-06-17 23:10:00,60.4,51.4,29.89,NNW,336,0.0,0.0,97,0.00,,,0.10,meteohub,2013-06-18 03:10:00,
2013-06-17 23:15:00,60.3,51.4,29.89,NNW,336,0.0,0.0,97,0.00,,,0.10,meteohub,2013-06-18 03:15:00,
2013-06-17 23:20:00,60.3,51.4,29.89,NNW,336,0.0,0.0,97,0.00,,,0.10,meteohub,2013-06-18 03:20:00,
2013-06-17 23:25:00,60.3,51.3,29.89,NNW,336,0.0,0.0,97,0.00,,,0.10,meteohub,2013-06-18 03:25:00,
2013-06-17 23:30:00,60.1,51.3,29.89,NNW,336,0.0,0.0,97,0.00,,,0.10,meteohub,2013-06-18 03:30:00,
2013-06-17 23:35:00,60.1,51.3,29.89,NNW,336,0.0,0.0,97,0.00,,,0.10,meteohub,2013-06-18 03:35:00,
2013-06-17 23:40:00,59.9,51.3,29.90,NNW,336,0.0,0.0,97,0.00,,,0.10,meteohub,2013-06-18 03:40:00,
2013-06-17 23:45:00,59.9,51.3,29.89,NNW,336,0.0,0.0,97,0.00,,,0.10,meteohub,2013-06-18 03:45:00,
2013-06-17 23:50:00,59.9,51.3,29.89,NNW,336,0.0,0.0,97,0.01,,,0.11,meteohub,2013-06-18 03:50:00,
2013-06-17 23:55:00,59.7,51.3,29.89,NNW,336,0.0,0.0,97,0.01,,,0.11,meteohub,2013-06-18 03:55:00,